Location: Creston
(40.9870°N, 81.8938°W)
Time: 08:25:05
(UTC+00:00)

Meteor 2-16 Rocket - Pass Details

Date: 29 October 2020
Orbit: 941 x 956 km, 82.6° (Epoch: 28 November)

Event Time Altitude Azimuth Distance (km) Brightness Sun altitude
Rises 23:09:56 0° 352° (N) 3,615 7.5 -8.8°
Reaches altitude 10° 23:12:26 10° 352° (N) 2,668 6.8 -9.3°
Maximum altitude 23:18:32 90° 68° (ENE) 950 4.5 -10.4°
Drops below altitude 10° 23:24:38 10° 174° (S) 2,657 6.8 -11.5°
Sets 23:27:06 0° 174° (S) 3,600 7.5 -12.0°
